Hourly Data Report for February 16, 2003

SHERBROOKE A
QUEBEC

45°26'00.000" N
71°41'00.000" W
241.40 m
7028124
71610
YSC

Download Data

Hourly Data (February 2003)
Hourly Data Report for February 16, 2003
TIME
LST
Temp Definition
°C
Dew Point Definition
°C
Rel Hum Definition
%
Precip. Amount Definition
mm

Wind Dir Definition
10's deg

Wind Spd Definition
km/h
Visibility Definition
km
Stn Press Definition
kPa
Hmdx Definition


Wind Chill Definition


Weather Definition


00:00 -27.9 -36.9 42   29 9 15.0 100.79   -36  
01:00 -28.2 -37.0 43   30 13 15.0 100.85   -38  
02:00 -29.6 -37.7 45   27 7 15.0 100.92   -37  
03:00 -30.0 -38.0 46   27 6 15.0 100.98   -37  
04:00 -29.8 -38.2 44   31 9 15.0 100.94   -38  
05:00 -31.1 -38.0 51   18 4 15.0 100.95   -36  
06:00 -32.3 -38.5 54   22 4 15.0 101.02   -37  
07:00 -31.4 -38.7 49   19 7 15.0 101.11   -39  
08:00 -29.2 -37.3 45   24 9 24.1 101.21   -38 Mainly Clear
09:00 -28.7 -37.0 45   28 9 24.1 101.28   -37 Mainly Clear
10:00 -27.1 -36.4 41   27 6 24.1 101.18   -33 Mainly Clear
11:00 -25.8 -35.8 39   26 7 24.1 101.16   -32 Mainly Clear
12:00 -24.0 -35.2 35   28 11 24.1 101.08   -32 Mainly Clear
13:00 -22.7 -34.8 32   27 13 24.1 101.04   -32 Mainly Clear
14:00 -21.2 -35.0 28   25 9 24.1 101.00   -28 Mainly Clear
15:00 -19.6 -34.5 25   25 9 24.1 100.99   -26 Mainly Clear
16:00 -19.3 -34.4 25   25 6 24.1 100.94   -24 Mainly Clear
17:00 -20.4 -34.4 27     0 24.1 100.86     Mainly Clear
18:00 -24.0 -33.6 41   29 6 15.0 100.90   -30  
19:00 -25.1 -34.8 40     0 15.0 100.89      
20:00 -26.5 -34.9 45     0 15.0 100.88      
21:00 -26.2 -34.6 45   8 7 15.0 100.89   -33  
22:00 -26.7 -35.2 45   9 6 15.0 100.88   -33  
23:00 -26.9 -35.1 46   8 9 15.0 100.78   -35  

Notes on Data Quality.

Legend

  • E = Estimated
  • M = Missing
  • NA = Not Available*
  • [empty] = Indicates an unobserved value
Date modified: